Weather History for St. Paul, MN

Change the Weather History Date:

Wednesday, March 6, 2013

  Actual Average Record
Temperature  
Mean Temperature 22 °F -  
Max Temperature 27 °F 29 °F 59 °F (2005)
Min Temperature 15 °F 15 °F 5 °F (2008)
Degree Days  
Heating Degree Days 42    
Moisture  
Dew Point 15 °F    
Average Humidity 74    
Maximum Humidity 86    
Minimum Humidity 61    
Precipitation  
Precipitation 0.00 in - - ()
Sea Level Pressure  
Sea Level Pressure 30.40 in    
Wind  
Wind Speed 8 mph (NW)    
Max Wind Speed 13 mph    
Max Gust Speed -    
Visibility 9 miles    
Events      
Averages and records for this station are not official NWS values.
T = Trace of Precipitation, MM = Missing Value Source: NWS Daily Summary

Daily Weather History Graph

Daily Weather History Graph

Search for Another Location

Airport:

Trip Planner

Search our weather history database for the weather conditions in past years. The results will help you decide how hot, cold, wet, or windy it might be!

Date:

Astronomy

Mar. 06, 2013 Rise Set
Actual Time 6:40 AM CST 6:06 PM CST
Civil Twilight 6:11 AM CST 6:36 PM CST
Nautical Twilight 5:37 AM CST 7:10 PM CST
Astronomical Twilight 5:03 AM CST 7:44 PM CST
Moon 3:01 AM CST (3/6) 12:38 PM CST (3/6)
Length of Visible Light 12h 24m
Length of Day
11h 26m
Waning Crescent, 29% of the Moon is Illuminated
Mar 6
Waning Crescent
Mar 11
New
Mar 19
First Quarter
Mar 27
Full
Apr 2
Last Quarter

Hourly Weather History & Observations

Time (CST) Temp. Windchill Dew Point Humidity Pressure Visibility Wind Dir Wind Speed Gust Speed Precip Events Conditions
12:53 AM 19.0 °F 9.0 °F 14.0 °F 81% 30.35 in 10.0 mi NW 8.1 mph - N/A   Clear
1:40 AM 19.4 °F 10.4 °F 15.8 °F 86% 30.34 in 10.0 mi NW 6.9 mph - N/A   Overcast
1:53 AM 21.0 °F 12.4 °F 17.1 °F 85% 30.38 in 10.0 mi NW 6.9 mph - N/A   Overcast
2:36 AM 21.2 °F 11.7 °F 17.6 °F 86% 30.35 in 2.5 mi NNW 8.1 mph - N/A   Overcast
2:43 AM 23.0 °F 13.1 °F 17.6 °F 80% 30.35 in 7.0 mi NNW 9.2 mph - N/A   Overcast
2:53 AM 23.0 °F 11.1 °F 18.0 °F 81% 30.38 in 8.0 mi NW 12.7 mph - N/A   Overcast
3:53 AM 21.0 °F 12.4 °F 15.1 °F 78% 30.39 in 10.0 mi NNW 6.9 mph - N/A   Overcast
4:53 AM 21.9 °F 12.5 °F 15.1 °F 75% 30.40 in 10.0 mi NNW 8.1 mph - N/A   Overcast
5:53 AM 21.0 °F 9.3 °F 16.0 °F 81% 30.42 in 10.0 mi NNW 11.5 mph - N/A   Overcast
6:53 AM 19.9 °F 8.6 °F 14.0 °F 78% 30.44 in 10.0 mi NNW 10.4 mph - N/A   Mostly Cloudy
7:53 AM 19.9 °F 9.3 °F 14.0 °F 78% 30.45 in 10.0 mi NNW 9.2 mph - N/A   Overcast
8:53 AM 21.0 °F 10.6 °F 15.1 °F 78% 30.45 in 9.0 mi NNW 9.2 mph - N/A   Overcast
9:53 AM 21.9 °F 10.4 °F 12.9 °F 68% 30.46 in 10.0 mi NNW 11.5 mph - N/A   Overcast
10:53 AM 23.0 °F 12.4 °F 14.0 °F 68% 30.45 in 10.0 mi NNW 10.4 mph - N/A   Overcast
11:53 AM 24.1 °F 16.0 °F 15.1 °F 69% 30.45 in 10.0 mi NNW 6.9 mph - N/A   Overcast
12:53 PM 25.0 °F - 15.1 °F 66% 30.43 in 10.0 mi Calm Calm - N/A   Overcast
1:53 PM 26.1 °F 20.5 °F 15.1 °F 63% 30.41 in 10.0 mi Variable 4.6 mph - N/A   Overcast
2:53 PM 26.1 °F 17.6 °F 16.0 °F 66% 30.40 in 10.0 mi NNW 8.1 mph - N/A   Mostly Cloudy
3:03 PM 26.6 °F 21.2 °F 15.8 °F 64% 30.36 in 10.0 mi North 4.6 mph - N/A   Scattered Clouds
3:53 PM 26.1 °F 19.4 °F 15.1 °F 63% 30.39 in 10.0 mi WNW 5.8 mph - N/A   Clear
4:53 PM 27.0 °F 20.5 °F 15.1 °F 61% 30.38 in 10.0 mi NNW 5.8 mph - N/A   Clear
5:53 PM 24.1 °F 15.2 °F 14.0 °F 65% 30.38 in 10.0 mi NW 8.1 mph - N/A   Clear
6:53 PM 24.1 °F 16.0 °F 15.1 °F 69% 30.39 in 10.0 mi NNW 6.9 mph - N/A   Clear
7:53 PM 21.9 °F 12.5 °F 14.0 °F 72% 30.40 in 10.0 mi NW 8.1 mph - N/A   Clear
8:53 PM 19.9 °F 14.9 °F 14.0 °F 78% 30.39 in 9.0 mi NW 3.5 mph - N/A   Clear
9:53 PM 19.0 °F - 14.0 °F 81% 30.40 in 8.0 mi Calm Calm - N/A   Clear
10:53 PM 18.0 °F 12.7 °F 12.9 °F 81% 30.40 in 7.0 mi West 3.5 mph - N/A   Clear
11:53 PM 15.1 °F - 10.9 °F 84% 30.42 in 6.0 mi Calm Calm - N/A   Clear